Location: Cogollal
(10.0582°N, 67.8466°W)
Time: 21:14:14
(UTC+00:00)

Cosmos 1766 - Pass Details

Date: 14 April 2024
Orbit: 487 x 505 km, 82.5° (Epoch: 18 May)

Event Time Altitude Azimuth Distance (km) Brightness Sun altitude
Rises 09:15:11 0° 353° (N) 2,544 6.8 -16.8°
Reaches altitude 10° 09:17:17 10° 351° (N) 1,664 5.8 -16.3°
Maximum altitude 09:20:54 74° 266° (W) 508 2.9 -15.4°
Drops below altitude 10° 09:24:33 10° 181° (S) 1,671 5.6 -14.5°
Sets 09:26:39 0° 179° (S) 2,554 6.6 -14.0°
